Location: Berlise
(49.6641°N, 4.1077°E)
Time: 02:13:15
(UTC+00:00)

Cosmos 1184 Rocket - Pass Details

Date: 27 January 2021
Orbit: 405 x 416 km, 81.2° (Epoch: 24 February)

Event Time Altitude Azimuth Distance (km) Brightness Sun altitude
Rises 06:12:17 0° 352° (N) 2,372 6.3 -11.4°
Reaches altitude 10° 06:14:22 10° 359° (N) 1,505 5.4 -11.1°
Maximum altitude 06:17:33 47° 75° (ENE) 566 3.8 -10.6°
Drops below altitude 10° 06:20:42 10° 150° (SSE) 1,496 6.3 -10.1°
Sets 06:22:47 0° 157° (SSE) 2,355 7.2 -9.8°
